Regional Weather Roundup
Issued by NWS

Home | Current Version | Previous Version | Graphics & Text | Print | Product List | Glossary On
Versions: 1 2 3 4 5 6 7 8 9 10 11 12 13 14 15 16 17 18 19 20 21 22 23 24 25 26 27 28 29 30 31 32 33 34 35 36 37 38 39 40 41 42 43 44 45 46 47 48 49 50
237
ASUS43 KDMX 110701
RWRIA

WEATHER ROUNDUP FOR IOWA
NATIONAL WEATHER SERVICE DES MOINES IA
100 AM CST SUN DEC 11 2016

NOTE: "FAIR" INDICATES FEW OR NO CLOUDS BELOW 12,000 FEET WITH NO
SIGNIFICANT WEATHER AND/OR OBSTRUCTIONS TO VISIBILITY.

* - THESE STATIONS ARE NOT NWS STATIONS...THUS NOT UNDER NWS
QUALITY CONTROL.  THEY ALSO DO NOT REPORT WEATHER SUCH
AS PRECIPITATION OR FOG.

IAZ001>003-012>014-020>022-031>034-043>046-110800-
   NORTHWEST IOWA

CITY           SKY/WX    TMP DP  RH WIND       PRES   REMARKS
CARROLL *      CLOUDY    23  21  93 SE14      29.90F WCI  11
CHEROKEE *     CLOUDY    23  21  93 E8        29.89F WCI  14
DENISON *      CLOUDY    27  21  80 SE10      29.84F WCI  17
LE MARS *      CLOUDY    25  21  86 E13G20    29.87F WCI  13
ORANGE CITY *  CLOUDY    21  19  93 E9        29.87S WCI  11
SHELDON *        N/A     21  21 100 E16       29.87F WCI   7
SIOUX CITY     CLOUDY    29  21  72 E10       29.85F WCI  20
SPENCER        LGT SNOW  21  19  92 E8        29.91F FOG     WCI  11
STORM LAKE *   CLOUDY    21  19  93 E15       29.89F WCI   8
$$

IAZ055>058-069>071-079>083-090>094-110800-
   SOUTHWEST IOWA

CITY           SKY/WX    TMP DP  RH WIND       PRES   REMARKS
ATLANTIC *     CLOUDY    30  21  69 SE3       29.89F
AUDUBON *      CLOUDY    25  21  86 E8        29.89F WCI  16
CLARINDA *     CLOUDY    34  21  60 S8G14     29.90F WCI  27
COUNCIL BLFS * CLOUDY    30  21  69 SE13      29.84F WCI  20
CRESTON *      CLOUDY    30  19  64 SE12      29.91F WCI  21
HARLAN  *      CLOUDY    28  21  74 SE12      29.90F WCI  18
LAMONI         CLOUDY    32  19  58 SE8       29.92F WCI  25
RED OAK *      CLOUDY    32  21  64 S12       29.87F WCI  23
SHENANDOAH *   CLOUDY    32  21  64 E6        29.88S WCI  26
$$

IAZ047>049-059>061-072>074-084-110800-
   CENTRAL IOWA

CITY           SKY/WX    TMP DP  RH WIND       PRES   REMARKS
AMES           CLOUDY    24  22  91 E9        29.97F WCI  14
ANKENY *       CLOUDY    25  21  86 E10       29.98F WCI  15
BOONE *        CLOUDY    23  21  93 E14       29.94F WCI  11
CHARITON *     CLOUDY    30  21  69 SE12      29.94F WCI  21
DES MOINES     CLOUDY    28  20  71 E8        29.96F WCI  20
GRINNELL*      CLOUDY    25  21  85 E15       30.00F WCI  12
KNOXVILLE *    CLOUDY    30  19  64 SE13      29.95F WCI  20
MARSHALLTOWN   LGT SNOW  23  21  92 E15       30.00F FOG     WCI  10
NEWTON *       CLOUDY    25  21  86 E13       29.98F WCI  13
PELLA *        CLOUDY    28  22  78 SE7       29.99F WCI  20
PERRY *        CLOUDY    25  23  91 E10       29.94F WCI  15
$$

IAZ004>006-015-016-023>025-035-036-110800-
   NORTH CENTRAL IOWA

CITY           SKY/WX    TMP DP  RH WIND       PRES   REMARKS
ALGONA *       LGT SNOW  21  19  93 E15G22    29.94F WCI   8
CLARION *      CLOUDY    21  21 100 SE16G22   29.97F FOG     WCI   7
ESTHERVILLE    LGT SNOW  19  18  95 SE16      29.94F FOG     WCI   4
FORT DODGE *   CLOUDY    21  18  86 E14       29.95F WCI   8
MASON CITY     LGT SNOW  20  17  88 SE15      30.01F FOG     WCI   6
WEBSTER CITY * CLOUDY    23  23 100 SE15      29.94F WCI  10
IOWA FALLS *   LGT SNOW  23  21  92 E13       30.00F WCI  11
$$

IAZ007>011-017>019-026>030-037>042-050>054-066-110800-
   NORTHEAST IOWA

CITY           SKY/WX    TMP DP  RH WIND       PRES   REMARKS
CEDAR RAPIDS   LGT SNOW  23  23 100 E12       30.05F FOG     WCI  12
CHARLES CITY * LGT SNOW  21  19  93 SE14      30.05F VSB 3/4 WCI   8
CLINTON *      LGT SNOW  24  22  91 SE13      30.13F FOG     WCI  12
DECORAH *      LGT SNOW  19  18  93 SE10G17   30.07F WCI   8
DUBUQUE        LGT SNOW  21  19  92 SE13      30.10F FOG     WCI   9
MONTICELLO *   LGT SNOW  23  19  86 SE14      30.08F WCI  11
OELWEIN *      LGT SNOW  21  21 100 SE15      30.06F WCI   8
WATERLOO       LGT SNOW  22  19  89 SE14      30.04F FOG     WCI   9
$$

IAZ064-065-067-068-078-110800-
   EAST CENTRAL IOWA

CITY           SKY/WX    TMP DP  RH WIND       PRES   REMARKS
DAVENPORT      FLURRIES  25  20  81 E12       30.11F WCI  14
IOWA CITY      CLOUDY    26  22  84 E8        30.08F WCI  18
MUSCATINE *    CLOUDY    28  21  74 SE9       30.09F WCI  20
QUAD CITIES    MOCLDY    27  20  75 E9        30.11F WCI  18
$$

IAZ062-063-075>077-085>089-095>099-110800-
   SOUTHEAST IOWA

CITY           SKY/WX    TMP DP  RH WIND       PRES   REMARKS
BURLINGTON     CLOUDY    31  21  66 S10       30.06F WCI  22
FAIRFIELD *    CLOUDY    30  21  69 SE12      30.02F WCI  21
FORT MADISON * CLOUDY    30  21  69 S7        30.07F WCI  23
KEOKUK *       CLOUDY    34  19  55 S10G16    30.04F WCI  26
OSKALOOSA *    CLOUDY    27  23  84 E9        30.00F WCI  18
CENTERVILLE *  CLOUDY    32  18  55 SE12      29.98F WCI  23
OTTUMWA        CLOUDY    30  19  63 SE12      29.99F WCI  20
WASHINGTON *   CLOUDY    27  25  93 SE10      30.05F WCI  17
$$

ABBREVIATIONS USED IN REMARKS
   TC - TEMPERATURES IN CELSIUS
  WCI - WIND CHILL INDEX
   HX - HEAT INDEX
  VSB - VISIBILITY
$$





USA.gov is the U.S. government's official web portal to all federal, state and local government web resources and services.